TimeEST,TemperatureF,Dew PointF,Humidity,Sea Level PressureIn,VisibilityMPH,Wind Direction,Wind SpeedMPH,Gust SpeedMPH,PrecipitationIn,Events,Conditions,WindDirDegrees,DateUTC
12:15 AM,41.9,38.3,87,29.97,10.0,WSW,6.9,-,N/A,,Overcast,240,2013-12-30 05:15:00
12:35 AM,41.7,38.7,89,29.97,7.0,West,4.6,-,N/A,,Unknown,260,2013-12-30 05:35:00
12:55 AM,41.0,39.4,94,29.97,5.0,West,3.5,-,N/A,,Unknown,270,2013-12-30 05:55:00
1:15 AM,41.0,39.4,94,29.97,10.0,West,5.8,-,N/A,,Overcast,260,2013-12-30 06:15:00
1:35 AM,41.0,39.2,93,29.98,7.0,West,12.7,17.3,N/A,,Unknown,280,2013-12-30 06:35:00
1:55 AM,38.3,37.0,95,30.00,7.0,NW,8.1,17.3,N/A,,Unknown,310,2013-12-30 06:55:00
2:15 AM,37.4,36.1,95,30.00,5.0,WNW,8.1,17.3,N/A,Snow,Light Snow,290,2013-12-30 07:15:00
2:35 AM,37.0,35.2,93,30.02,7.0,West,9.2,-,N/A,,Overcast,280,2013-12-30 07:35:00
2:55 AM,36.9,34.5,91,30.02,10.0,WNW,8.1,-,N/A,,Overcast,290,2013-12-30 07:55:00
3:15 AM,36.7,33.8,89,30.04,10.0,WNW,4.6,-,N/A,,Overcast,300,2013-12-30 08:15:00
3:35 AM,36.3,33.3,89,30.04,10.0,WNW,8.1,-,N/A,,Overcast,290,2013-12-30 08:35:00
3:55 AM,35.2,33.3,92,30.05,7.0,WNW,8.1,-,N/A,,Overcast,300,2013-12-30 08:55:00
4:15 AM,34.2,33.1,96,30.06,4.0,WNW,8.1,-,N/A,,Overcast,300,2013-12-30 09:15:00
4:35 AM,33.8,32.5,95,30.06,4.0,NW,5.8,-,N/A,,Overcast,310,2013-12-30 09:35:00
4:55 AM,33.3,32.2,96,30.07,4.0,WNW,4.6,-,N/A,,Overcast,290,2013-12-30 09:55:00
5:15 AM,32.9,32.2,97,30.09,3.0,WNW,5.8,-,N/A,Snow,Light Snow,300,2013-12-30 10:15:00
5:35 AM,32.5,32.0,98,30.09,3.0,West,6.9,-,N/A,Snow,Light Snow,270,2013-12-30 10:35:00
5:55 AM,32.4,32.0,99,30.10,4.0,West,6.9,-,N/A,,Overcast,280,2013-12-30 10:55:00
6:15 AM,32.4,32.0,99,30.11,5.0,WNW,4.6,-,N/A,,Overcast,290,2013-12-30 11:15:00
6:35 AM,32.0,32.0,100,30.12,7.0,WNW,5.8,-,N/A,,Overcast,300,2013-12-30 11:35:00
6:55 AM,32.0,31.8,99,30.12,10.0,WNW,5.8,-,N/A,,Overcast,290,2013-12-30 11:55:00
7:15 AM,32.0,31.1,96,30.13,10.0,WNW,4.6,-,N/A,,Overcast,290,2013-12-30 12:15:00
7:35 AM,32.2,30.9,95,30.14,10.0,WNW,3.5,-,N/A,,Overcast,290,2013-12-30 12:35:00
7:55 AM,32.0,30.2,93,30.15,10.0,WNW,3.5,-,N/A,,Overcast,300,2013-12-30 12:55:00
8:15 AM,32.2,30.4,93,30.15,10.0,Calm,Calm,-,N/A,,Overcast,0,2013-12-30 13:15:00
8:35 AM,32.2,30.6,94,30.16,10.0,WNW,4.6,-,N/A,,Overcast,300,2013-12-30 13:35:00
8:55 AM,32.4,30.4,92,30.17,10.0,WNW,3.5,-,N/A,,Overcast,290,2013-12-30 13:55:00
9:15 AM,32.4,30.2,92,30.17,10.0,WNW,3.5,-,N/A,,Overcast,290,2013-12-30 14:15:00
9:35 AM,32.9,30.6,91,30.18,10.0,WNW,3.5,-,N/A,,Overcast,300,2013-12-30 14:35:00
9:55 AM,32.9,30.0,89,30.17,10.0,NW,4.6,-,N/A,,Overcast,310,2013-12-30 14:55:00
10:15 AM,33.1,30.2,89,30.19,10.0,Calm,Calm,-,N/A,,Overcast,0,2013-12-30 15:15:00
10:35 AM,32.5,29.8,90,30.19,10.0,North,5.8,-,N/A,,Overcast,350,2013-12-30 15:35:00
10:55 AM,32.0,30.0,92,30.18,10.0,North,3.5,-,N/A,,Overcast,360,2013-12-30 15:55:00
11:15 AM,32.4,29.8,90,30.19,10.0,NW,5.8,-,N/A,,Overcast,320,2013-12-30 16:15:00
11:35 AM,32.4,29.7,90,30.19,10.0,Calm,Calm,-,N/A,,Overcast,0,2013-12-30 16:35:00
11:55 AM,32.9,30.0,89,30.19,10.0,NNW,3.5,-,N/A,,Overcast,340,2013-12-30 16:55:00
12:15 PM,32.9,29.1,86,30.18,10.0,West,3.5,-,N/A,,Overcast,280,2013-12-30 17:15:00
12:35 PM,33.1,28.9,85,30.17,10.0,West,5.8,-,N/A,,Overcast,260,2013-12-30 17:35:00
12:55 PM,33.8,28.2,80,30.17,10.0,West,5.8,-,N/A,,Overcast,260,2013-12-30 17:55:00
1:15 PM,33.8,26.2,74,30.16,10.0,West,4.6,-,N/A,,Overcast,280,2013-12-30 18:15:00
1:35 PM,34.3,25.7,71,30.16,10.0,WSW,3.5,-,N/A,,Overcast,250,2013-12-30 18:35:00
1:55 PM,34.7,26.1,71,30.16,10.0,West,5.8,-,N/A,,Overcast,280,2013-12-30 18:55:00
2:15 PM,34.5,26.6,73,30.16,10.0,WNW,4.6,-,N/A,,Overcast,290,2013-12-30 19:15:00
2:35 PM,34.5,27.1,74,30.15,10.0,Calm,Calm,-,N/A,,Overcast,0,2013-12-30 19:35:00
2:55 PM,34.3,26.6,73,30.14,10.0,West,5.8,-,N/A,,Overcast,260,2013-12-30 19:55:00
3:15 PM,34.5,26.4,72,30.13,10.0,WSW,3.5,-,N/A,,Overcast,250,2013-12-30 20:15:00
3:35 PM,34.3,26.1,72,30.13,10.0,WSW,3.5,-,N/A,,Overcast,250,2013-12-30 20:35:00
3:55 PM,34.3,26.2,72,30.13,10.0,Calm,Calm,-,N/A,,Overcast,0,2013-12-30 20:55:00
4:15 PM,34.2,26.1,72,30.14,10.0,West,3.5,-,N/A,,Overcast,280,2013-12-30 21:15:00
4:35 PM,34.3,26.1,72,30.14,10.0,Calm,Calm,-,N/A,,Overcast,0,2013-12-30 21:35:00
4:55 PM,34.0,25.9,72,30.14,10.0,NW,3.5,-,N/A,,Overcast,310,2013-12-30 21:55:00
5:15 PM,33.8,25.9,73,30.14,10.0,Calm,Calm,-,N/A,,Overcast,0,2013-12-30 22:15:00
5:35 PM,33.4,26.6,76,30.16,10.0,Calm,Calm,-,N/A,,Overcast,0,2013-12-30 22:35:00
5:55 PM,33.4,26.2,75,30.15,10.0,Calm,Calm,-,N/A,,Overcast,0,2013-12-30 22:55:00
6:15 PM,33.4,26.1,74,30.16,10.0,Calm,Calm,-,N/A,,Overcast,0,2013-12-30 23:15:00
6:35 PM,33.3,26.2,75,30.15,10.0,Calm,Calm,-,N/A,,Overcast,0,2013-12-30 23:35:00
6:55 PM,32.9,26.8,78,30.16,10.0,Calm,Calm,-,N/A,,Overcast,0,2013-12-30 23:55:00
7:15 PM,32.9,26.4,77,30.16,10.0,West,3.5,-,N/A,,Overcast,280,2013-12-31 00:15:00
7:35 PM,32.9,26.2,76,30.17,10.0,WSW,3.5,-,N/A,,Overcast,250,2013-12-31 00:35:00
7:55 PM,32.9,26.2,76,30.17,10.0,WNW,3.5,-,N/A,,Overcast,290,2013-12-31 00:55:00
8:15 PM,32.9,25.7,75,30.17,10.0,Calm,Calm,-,N/A,,Overcast,0,2013-12-31 01:15:00
8:35 PM,32.5,25.7,76,30.16,10.0,West,3.5,-,N/A,,Overcast,260,2013-12-31 01:35:00
8:55 PM,32.4,25.9,77,30.17,10.0,WNW,6.9,-,N/A,,Overcast,290,2013-12-31 01:55:00
9:15 PM,32.4,26.1,78,30.17,10.0,West,8.1,-,N/A,,Overcast,280,2013-12-31 02:15:00
9:35 PM,32.2,26.4,79,30.18,10.0,WNW,5.8,-,N/A,,Overcast,290,2013-12-31 02:35:00
9:55 PM,32.0,26.4,80,30.18,10.0,WNW,4.6,-,N/A,,Overcast,290,2013-12-31 02:55:00
10:15 PM,32.0,26.6,80,30.19,10.0,West,4.6,-,N/A,,Overcast,270,2013-12-31 03:15:00
10:35 PM,32.0,26.6,80,30.18,10.0,Calm,Calm,-,N/A,,Overcast,0,2013-12-31 03:35:00
10:55 PM,32.0,26.6,80,30.19,10.0,Calm,Calm,-,N/A,,Overcast,0,2013-12-31 03:55:00
11:15 PM,31.8,26.6,81,30.19,10.0,WNW,4.6,-,N/A,,Overcast,290,2013-12-31 04:15:00
11:35 PM,31.6,26.6,82,30.19,10.0,West,4.6,-,N/A,,Overcast,280,2013-12-31 04:35:00
11:55 PM,31.3,26.2,82,30.19,10.0,West,5.8,-,N/A,,Overcast,260,2013-12-31 04:55:00